Needles, CA

8:21 AM PDT on June 25, 2017 (GMT -0700)
Needles

Weather History for KEED - March, 2014

Change the Weather History Date:

Tuesday, March 11, 2014

  Actual Average Record
Temperature  
Mean Temperature 68 °F 63 °F  
Max Temperature 73 °F 76 °F 93 °F (1989)
Min Temperature 62 °F 51 °F 34 °F (1919)
Degree Days  
Heating Degree Days 0    
Cooling Degree Days 3    
Growing Degree Days 18 (Base 50)    
Moisture  
Dew Point 15 °F    
Average Humidity 14    
Maximum Humidity 20    
Minimum Humidity 9    
Precipitation  
Precipitation 0.00 in 0.01 in 1.15 in (1965)
Month to date precipitation 0.23  
Year to date precipitation 1.73  
Sea Level Pressure  
Sea Level Pressure 29.96 in    
Wind  
Wind Speed 14 mph (North)    
Max Wind Speed 29 mph    
Max Gust Speed 38 mph    
Visibility 10 miles    
Events      
T = Trace of Precipitation, MM = Missing Value Source: NWS Daily Summary

Daily Weather History Graph

Daily Weather History Graph

Search for Another Location

Airport or City:

Trip Planner

Search our weather history database for the weather conditions in past years. The results will help you decide how hot, cold, wet, or windy it might be!

Date:

Astronomy

Mar. 11, 2014 Rise Set
Actual Time 6:54 AM PDT 6:42 PM PDT
Civil Twilight 6:29 AM PDT 7:08 PM PDT
Nautical Twilight 6:00 AM PDT 7:37 PM PDT
Astronomical Twilight 5:30 AM PDT 8:06 PM PDT
Moon 2:31 PM PDT (3/11) 3:42 AM PDT (3/11)
Length of Visible Light 12h 38m
Length of Day
11h 48m
Waxing Gibbous, 79% of the Moon is Illuminated
Mar 11
Waxing Gibbous
Mar 16
Full
Mar 23
Last Quarter
Mar 30
New
Apr 7
First Quarter

Hourly Weather History & Observations

Time (PDT) Temp. Dew Point Humidity Pressure Visibility Wind Dir Wind Speed Gust Speed Precip Events Conditions
12:56 AM 69.1 °F 19.0 °F 15% 29.83 in 10.0 mi SSW 4.6 mph - N/A   Clear
1:56 AM 66.0 °F 23.0 °F 20% 29.83 in 10.0 mi WSW 11.5 mph - N/A   Clear
2:56 AM 64.9 °F 19.9 °F 18% 29.86 in 10.0 mi NE 8.1 mph - N/A   Clear
3:56 AM 66.0 °F 21.0 °F 18% 29.87 in 10.0 mi North 8.1 mph - N/A   Clear
4:56 AM 66.9 °F 15.1 °F 14% 29.90 in 10.0 mi North 13.8 mph - N/A   Clear
5:56 AM 64.9 °F 19.9 °F 18% 29.94 in 10.0 mi North 17.3 mph - N/A   Clear
6:56 AM 63.0 °F 17.1 °F 17% 29.98 in 10.0 mi North 11.5 mph - N/A   Clear
7:56 AM 63.0 °F 18.0 °F 18% 30.01 in 10.0 mi NE 5.8 mph - N/A   Clear
8:56 AM 66.0 °F 18.0 °F 16% 30.03 in 10.0 mi NNE 28.8 mph 35.7 mph N/A   Clear
9:56 AM 66.9 °F 18.0 °F 15% 30.04 in 10.0 mi NNE 27.6 mph 38.0 mph N/A   Clear
10:56 AM 68.0 °F 17.1 °F 14% 30.04 in 10.0 mi North 23.0 mph 34.5 mph N/A   Clear
11:56 AM 72.0 °F 15.1 °F 11% 30.01 in 10.0 mi NNE 28.8 mph 38.0 mph N/A   Clear
12:56 PM 72.0 °F 12.9 °F 10% 29.99 in 10.0 mi NNE 25.3 mph 32.2 mph N/A   Clear
1:56 PM 73.0 °F 10.0 °F 9% 29.97 in 10.0 mi NNE 25.3 mph 33.4 mph N/A   Clear
2:56 PM 73.0 °F 10.0 °F 9% 29.96 in 10.0 mi North 21.9 mph 31.1 mph N/A   Clear
3:56 PM 73.0 °F 10.9 °F 9% 29.95 in 10.0 mi NNE 25.3 mph 31.1 mph N/A   Clear
4:56 PM 72.0 °F 12.9 °F 10% 29.95 in 10.0 mi North 20.7 mph 28.8 mph N/A   Clear
5:56 PM 71.1 °F 12.0 °F 10% 29.95 in 10.0 mi NNE 19.6 mph 27.6 mph N/A   Clear
6:56 PM 69.1 °F 12.9 °F 11% 29.96 in 10.0 mi North 15.0 mph - N/A   Clear
7:56 PM 66.9 °F 12.9 °F 12% 29.97 in 10.0 mi North 11.5 mph - N/A   Clear
8:56 PM 66.0 °F 12.9 °F 13% 29.97 in 10.0 mi North 18.4 mph - N/A   Clear
9:56 PM 64.9 °F 12.9 °F 13% 29.98 in 10.0 mi North 13.8 mph - N/A   Clear
10:56 PM 64.0 °F 12.9 °F 14% 30.00 in 10.0 mi North 18.4 mph - N/A   Clear
11:56 PM 62.1 °F 15.1 °F 16% 30.00 in 10.0 mi North 15.0 mph - N/A   Clear